Spokane, WA

4:58 AM PST on November 18, 2017 (GMT -0800)
Spokane International

Weather History for KGEG - February, 2014

Change the Weather History Date:

Saturday, February 15, 2014

  Actual Average Record
Temperature  
Mean Temperature 38 °F 33 °F  
Max Temperature 44 °F 39 °F 56 °F (1982)
Min Temperature 32 °F 26 °F -16 °F (1936)
Degree Days  
Heating Degree Days 27 32  
Month to date heating degree days 645 494  
Since 1 July heating degree days 4603 4427  
Cooling Degree Days 0 0  
Month to date cooling degree days 0 0  
Year to date cooling degree days 0 0  
Moisture  
Dew Point 34 °F    
Average Humidity 84    
Maximum Humidity 100    
Minimum Humidity 67    
Precipitation  
Precipitation 0.30 in 0.04 in 0.74 in (2017)
Month to date precipitation 0.98 0.70  
Year to date precipitation 1.99 2.49  
Snow  
Snow 0.00 in 0.30 in 6.80 in (1990)
Month to date snowfall 8.4 4.0  
Since 1 July snowfall 22.3 37.5  
Snow Depth 0.00 in    
Sea Level Pressure  
Sea Level Pressure 29.76 in    
Wind  
Wind Speed 10 mph (SE)    
Max Wind Speed 38 mph    
Max Gust Speed 44 mph    
Visibility 8 miles    
Events Fog , Rain    
T = Trace of Precipitation, MM = Missing Value Source: NWS Daily Summary

Daily Weather History Graph

Daily Weather History Graph

Search for Another Location

Airport or City:

Trip Planner

Search our weather history database for the weather conditions in past years. The results will help you decide how hot, cold, wet, or windy it might be!

Date:

Astronomy

Feb. 15, 2014 Rise Set
Actual Time 6:55 AM PST 5:13 PM PST
Civil Twilight 6:23 AM PST 5:45 PM PST
Nautical Twilight 5:47 AM PST 6:21 PM PST
Astronomical Twilight 5:12 AM PST 6:57 PM PST
Moon 6:25 PM PST (2/15) 6:50 AM PST (2/15)
Length of Visible Light 11h 21m
Length of Day
10h 18m
Full, 99% of the Moon is Illuminated
Feb 15
Full
Feb 22
Last Quarter
Mar 1
New
Mar 8
First Quarter
Mar 16
Full

Hourly Weather History & Observations

Time (PST) Temp. Windchill Dew Point Humidity Pressure Visibility Wind Dir Wind Speed Gust Speed Precip Events Conditions
12:53 AM 34.0 °F 26.6 °F 32.0 °F 92% 29.96 in 10.0 mi South 9.2 mph - N/A   Mostly Cloudy
1:53 AM 33.1 °F 26.9 °F 32.0 °F 96% 29.98 in 10.0 mi SSE 6.9 mph - N/A   Overcast
2:28 AM 34.0 °F 28.0 °F 32.0 °F 92% 29.93 in 10.0 mi South 6.9 mph - N/A   Overcast
2:35 AM 34.0 °F 26.6 °F 33.1 °F 96% 29.93 in 1.0 mi South 9.2 mph - N/A   Overcast
2:53 AM 34.0 °F 25.5 °F 32.0 °F 92% 29.97 in 1.0 mi SSW 11.5 mph - N/A   Overcast
3:22 AM 33.1 °F 26.1 °F 33.1 °F 100% 29.92 in 0.8 mi SSE 8.1 mph - N/A Fog Overcast
3:53 AM 34.0 °F 25.5 °F 33.1 °F 96% 29.95 in 0.8 mi SSE 11.5 mph - N/A Fog Overcast
4:45 AM 34.0 °F 29.8 °F 33.1 °F 96% 29.92 in 4.0 mi SSE 4.6 mph - N/A Fog Overcast
4:53 AM 34.0 °F 31.0 °F 33.1 °F 96% 29.97 in 6.0 mi Variable 3.5 mph - N/A   Scattered Clouds
5:05 AM 34.0 °F - 32.0 °F 92% 29.92 in 6.0 mi Calm Calm - N/A   Mostly Cloudy
5:53 AM 34.0 °F 31.0 °F 32.0 °F 92% 29.95 in 7.0 mi East 3.5 mph - N/A   Mostly Cloudy
6:32 AM 34.0 °F 29.8 °F 32.0 °F 92% 29.90 in 10.0 mi ESE 4.6 mph - N/A   Mostly Cloudy
6:44 AM 35.1 °F 30.1 °F 32.0 °F 89% 29.88 in 10.0 mi ESE 5.8 mph - N/A   Mostly Cloudy
6:53 AM 34.0 °F 28.8 °F 30.9 °F 89% 29.93 in 10.0 mi East 5.8 mph - N/A   Overcast
7:53 AM 33.1 °F 30.0 °F 30.9 °F 92% 29.92 in 7.0 mi ENE 3.5 mph - N/A   Mostly Cloudy
8:53 AM 35.1 °F 30.1 °F 32.0 °F 89% 29.91 in 10.0 mi ENE 5.8 mph - N/A Fog Mostly Cloudy
9:53 AM 37.9 °F 33.5 °F 33.1 °F 83% 29.88 in 10.0 mi ENE 5.8 mph - N/A   Mostly Cloudy
10:53 AM 41.0 °F 36.4 °F 34.0 °F 76% 29.85 in 10.0 mi ENE 6.9 mph - N/A   Overcast
11:53 AM 42.1 °F 36.6 °F 33.1 °F 70% 29.79 in 10.0 mi NE 9.2 mph - N/A   Overcast
12:53 PM 43.0 °F 36.8 °F 32.0 °F 65% 29.73 in 10.0 mi ENE 11.5 mph - N/A   Overcast
1:41 PM 42.1 °F 36.6 °F 33.1 °F 70% 29.67 in 7.0 mi East 9.2 mph - 0.00 in Rain Light Rain
1:53 PM 42.1 °F 37.1 °F 33.1 °F 70% 29.70 in 7.0 mi ESE 8.1 mph - 0.00 in Rain Light Rain
2:53 PM 39.9 °F 34.5 °F 35.1 °F 83% 29.67 in 6.0 mi ESE 8.1 mph - 0.05 in Rain Light Rain
3:53 PM 37.9 °F 31.5 °F 35.1 °F 89% 29.63 in 5.0 mi ESE 9.2 mph - 0.07 in Rain Light Rain
4:53 PM 37.0 °F 30.4 °F 35.1 °F 93% 29.59 in 9.0 mi East 9.2 mph - 0.04 in Rain Light Rain
5:53 PM 37.0 °F 31.0 °F 35.1 °F 93% 29.55 in 8.0 mi East 8.1 mph - 0.05 in Rain Light Rain
6:53 PM 37.9 °F 30.9 °F 35.1 °F 89% 29.51 in 10.0 mi ESE 10.4 mph - 0.04 in Rain Light Rain
7:53 PM 37.9 °F 32.1 °F 36.0 °F 93% 29.48 in 10.0 mi SE 8.1 mph - 0.01 in   Overcast
8:53 PM 39.0 °F 34.8 °F 37.0 °F 93% 29.44 in 10.0 mi SE 5.8 mph - 0.00 in Rain Light Rain
9:53 PM 43.0 °F 35.7 °F 39.0 °F 86% 29.44 in 10.0 mi South 15.0 mph 23.0 mph 0.04 in   Overcast
10:53 PM 42.1 °F 31.7 °F 37.9 °F 85% 29.49 in 10.0 mi SW 27.6 mph 40.3 mph N/A   Overcast
11:20 PM 41.0 °F 29.3 °F 37.0 °F 86% 29.48 in 10.0 mi SSW 33.4 mph 42.6 mph N/A   Overcast
11:47 PM 39.2 °F 27.0 °F 35.6 °F 87% 29.50 in 10.0 mi SW 32.2 mph 39.1 mph N/A   Overcast
11:53 PM 39.0 °F 27.0 °F 36.0 °F 89% 29.53 in 10.0 mi SW 31.1 mph 43.7 mph N/A   Overcast